map of SLZ home
Great Circle Mapper logo
SLZ - Airport
Location
City:  São Luis, Maranhão, Brazil
Name:Marechal Cunha Machado International Airport
ICAO / IATA:SBSL / SLZ

Details
Type:Airport (Aerodrome, Airfield)
Use:Public/Civil, International (customs port of entry)
Latitude:2°35'07"S (-2.585360)
Longitude:44°14'03"W (-44.234138)
Datum:WGS 1984
Elevation:178 ft (54 m)
Variation:20.92°W (WMM2015 magnetic declination)
0.00° annual change
Runways:2
Longest:7850 × 148 ft (2393 × 45 m), paved

Time
Time Zone:UTC-3
Local Time:

Weather
METAR:SBSL 291800Z 05011KT 9999 SCT017 FEW025TCU 30/22 Q1008 RETS
TAF:SBSL 291000Z 2912/3012 09008KT 9999 SCT017 TX31/2916Z TN25/3007Z
BECMG 2915/2917 SCT017 FEW025TCU
BECMG 2922/2924 06005KT FEW017
BECMG 3009/3011 09010KT BKN020
RMK PEH

Related Locations
Nearby:
Farthest:FOO: 12181 mi / 19604 km
Numfoor [Kornasoren], Irian Jaya Island, PP, ID

Find:

   beyond  
but within

Other Information
Maps:
NOTAMs:
Links:
Sources:

  
flag of Brazil
flag of Maranhão
  

Sectional Chart

Flight Planning
at skyvector.com

Satellite Image

Google Maps Satellite View

 

Copyright © 2004-2015 Karl L. Swartz. All rights reserved.
The Great Circle Mapper name and logo are trademarks of the Great Circle Mapper.
All other trademarks mentioned herein belong to their respective owners.
Please see credits for attibutions and further copyright information.

  Follow gcmap on Facebook Follow gcmap on Twitter Follow gcmap on Google+

hCard Microformat

Geo Microformat